This is the latest recevied weather packets stored in our database for station/object WZ9ZZZ-1. If no packets are shown the sender has not sent any weather packets the latest 10 day(s).
| Time | Temp. | Humidity | Pressure | Rain* | Wind** | Luminosity | Snow |
|---|---|---|---|---|---|---|---|
| 1777749449 | 24.44° C | 46% | 1022.7 hPa | 0 mm | - | 722 W/m² | - |
| 1777749147 | 23.89° C | 48% | 1022.7 hPa | 0 mm | - | 723 W/m² | - |
| 1777748844 | 24.44° C | 48% | 1023 hPa | 0 mm | - | 720 W/m² | - |
| 1777748542 | 24.44° C | 45% | 1022.9 hPa | 0 mm | - | 728 W/m² | - |
| 1777748241 | 23.89° C | 48% | 1022.9 hPa | 0 mm | - | 726 W/m² | - |
| 1777747938 | 24.44° C | 47% | 1022.7 hPa | 0 mm | - | 732 W/m² | - |
| 1777747634 | 24.44° C | 48% | 1022.9 hPa | 0 mm | - | 745 W/m² | - |
| 1777747330 | 24.44° C | 49% | 1022.7 hPa | 0 mm | - | 735 W/m² | - |
| 1777747027 | 23.89° C | 51% | 1022.8 hPa | 0 mm | - | 742 W/m² | - |
| 1777746723 | 23.89° C | 50% | 1023.1 hPa | 0 mm | - | 746 W/m² | - |
| 1777746418 | 23.89° C | 51% | 1022.8 hPa | 0 mm | - | 727 W/m² | - |
| 1777746113 | 23.89° C | 52% | 1023.1 hPa | 0 mm | - | 728 W/m² | - |
| 1777745811 | 23.33° C | 53% | 1023.3 hPa | 0 mm | - | 731 W/m² | - |
| 1777745510 | 23.33° C | 50% | 1023.2 hPa | 0 mm | - | 721 W/m² | - |
| 1777745207 | 23.33° C | 52% | 1023.5 hPa | 0 mm | - | 711 W/m² | - |
| 1777744904 | 23.89° C | 51% | 1023.6 hPa | 0 mm | - | 731 W/m² | - |
| 1777744603 | 22.78° C | 51% | 1023.3 hPa | 0 mm | - | 735 W/m² | - |
| 1777744299 | 22.78° C | 51% | 1023.3 hPa | 0 mm | - | 730 W/m² | - |
| 1777743996 | 22.78° C | 52% | 1023.3 hPa | 0 mm | - | 727 W/m² | - |
| 1777743692 | 23.33° C | 53% | 1023.5 hPa | 0 mm | - | 719 W/m² | - |
| 1777743390 | 23.33° C | 55% | 1023.6 hPa | 0 mm | - | 720 W/m² | - |
| 1777743088 | 22.78° C | 54% | 1023.7 hPa | 0 mm | - | 718 W/m² | - |
| 1777742785 | 22.78° C | 53% | 1023.6 hPa | 0 mm | - | 704 W/m² | - |
| 1777742481 | 22.78° C | 55% | 1023.5 hPa | 0 mm | - | 707 W/m² | - |
| 1777742177 | 22.78° C | 53% | 1023.4 hPa | 0 mm | - | 681 W/m² | - |
* Rain latest hour (hover to see other rain measurements)
** Current wind speed in m/s (hover to see current wind gust speed)